Location: Riverton
(43.0250°N, 108.3790°W)
Time: 00:34:41
(UTC-06:00)

JAS-2 - Visible Passes

Search period start: 02 April 2015 00:00
Search period end: 12 April 2015 00:00
Orbit: 801 x 1321 km, 98.5° (Epoch: 01 April)

Date Brightness Start Highest point End Pass type
(mag) Time Alt. Az. Time Alt. Az. Time Alt. Az.
02 Apr 11.5 04:36:38 10° NNE 04:43:21 34° E 04:49:38 10° SSE visible
02 Apr 10.2 06:21:16 10° N 06:28:43 52° WNW 06:35:28 10° SW visible
03 Apr 12.4 03:44:18 10° NE 03:47:12 13° E 03:50:32 10° ESE visible
03 Apr 10.2 05:26:13 10° NNE 05:33:55 73° ESE 05:40:50 10° S visible
04 Apr 11.5 04:31:57 10° NNE 04:38:26 31° E 04:44:31 10° SSE visible
04 Apr 10.1 06:16:28 10° N 06:23:53 55° WNW 06:30:35 10° SW visible
05 Apr 12.5 03:40:09 10° ENE 03:42:13 12° ENE 03:44:48 10° E visible
05 Apr 10.3 05:21:28 10° NNE 05:29:03 69° E 05:35:50 10° S visible
06 Apr 11.6 04:27:17 10° NNE 04:33:31 29° E 04:39:21 10° SSE visible
06 Apr 10.1 06:11:40 10° N 06:19:04 58° WNW 06:25:42 10° SW visible
07 Apr 12.6 03:36:32 10° ENE 03:37:13 10° ENE 03:38:31 10° E visible
07 Apr 10.3 05:16:43 10° NNE 05:24:11 65° E 05:30:49 10° S visible
08 Apr 11.7 04:22:39 10° NE 04:28:34 27° E 04:34:10 10° SE visible
08 Apr 10.0 06:06:52 10° N 06:14:14 61° WNW 06:20:47 10° SSW visible
09 Apr 10.4 05:11:58 10° NNE 05:19:17 60° E 05:25:47 10° S visible
10 Apr 11.8 04:18:00 10° NE 04:23:37 25° E 04:28:57 10° SE visible
10 Apr 9.9 06:02:05 10° N 06:09:24 64° WNW 06:15:51 10° SSW visible
11 Apr 10.5 05:07:14 10° NNE 05:14:23 56° E 05:20:43 10° S visible
